Total_Precipitation_Accumulation
0.00 0.00 0.00 0.00 0.00 0.00 0.00 0.00 0.00 0.00 0.00 0.00 0.00 0.01 0.01 0.02 0.07 0.14 0.10 0.08 0.01 0.00 0.02 0.02 0.02 0.01 0.00 0.00 0.00 0.00 0.00 0.00 0.00 0.00 0.00 0.00 0.00 0.00 0.00 0.00 0.00 0.00 0.00
0.00 0.00 0.00 0.00 0.00 0.00 0.00 0.00 0.00 0.00 0.00 0.00 0.00 0.01 0.01 0.01 0.01 0.03 0.07 0.06 0.02 0.01 0.01 0.01 0.01 0.03 0.01 0.00 0.00 0.00 0.00 0.00 0.00 0.00 0.00 0.00 0.00 0.00 0.00 0.00 0.00 0.00 0.00
0.01 0.01 0.00 0.00 0.00 0.00 0.00 0.00 0.00 0.00 0.00 0.00 0.01 0.02 0.07 0.07 0.07 0.07 0.07 0.06 0.04 0.02 0.01 0.00 0.00 0.03 0.01 0.01 0.00 0.00 0.00 0.00 0.00 0.00 0.00 0.00 0.00 0.00 0.00 0.00 0.00 0.00 0.00
0.04 0.07 0.03 0.01 0.01 0.00 0.00 0.00 0.00 0.00 0.00 0.03 0.04 0.03 0.03 0.06 0.06 0.04 0.05 0.03 0.02 0.01 0.01 0.02 0.01 0.03 0.03 0.02 0.01 0.00 0.00 0.00 0.00 0.00 0.00 0.00 0.00 0.00 0.00 0.00 0.00 0.00 0.00
0.06 0.10 0.07 0.03 0.03 0.03 0.02 0.01 0.00 0.00 0.03 0.07 0.07 0.05 0.04 0.04 0.08 0.08 0.06 0.04 0.02 0.02 0.03 0.03 0.02 0.03 0.05 0.04 0.03 0.02 0.01 0.00 0.00 0.00 0.00 0.00 0.00 0.00 0.00 0.00 0.00 0.00 0.00
0.07 0.08 0.06 0.04 0.05 0.08 0.05 0.06 0.04 0.03 0.07 0.09 0.16 0.12 0.07 0.07 0.14 0.16 0.12 0.08 0.06 0.05 0.03 0.04 0.05 0.04 0.06 0.05 0.04 0.03 0.03 0.02 0.00 0.00 0.00 0.00 0.00 0.00 0.00 0.00 0.01 0.01 0.00
0.14 0.05 0.02 0.07 0.08 0.37 0.15 0.22 0.17 0.39 0.18 0.10 0.16 0.16 0.12 0.11 0.08 0.18 0.22 0.13 0.09 0.07 0.10 0.07 0.06 0.09 0.10 0.10 0.06 0.07 0.06 0.03 0.01 0.00 0.00 0.00 0.00 0.00 0.00 0.00 0.00 0.00 0.01
0.14 0.07 0.12 0.28 0.32 0.63 0.53 0.23 0.16 0.50 0.36 0.22 0.06 0.10 0.27 0.11 0.06 0.08 0.24 0.29 0.27 0.18 0.14 0.13 0.20 0.31 0.29 0.26 0.22 0.16 0.09 0.06 0.04 0.02 0.01 0.00 0.00 0.00 0.02 0.03 0.03 0.03 0.02
0.24 0.38 0.47 0.50 0.44 0.23 0.53 0.34 0.33 0.19 0.20 0.26 0.13 0.18 0.52 0.30 0.10 0.08 0.12 0.11 0.18 0.28 0.30 0.34 0.36 0.49 0.56 0.50 0.46 0.35 0.22 0.15 0.09 0.05 0.05 0.04 0.03 0.05 0.07 0.11 0.12 0.13 0.09
0.06 0.18 0.30 0.43 0.50 0.53 0.93 0.46 0.18 0.30 0.18 0.12 0.15 0.34 0.52 0.50 0.20 0.09 0.07 0.08 0.10 0.12 0.26 0.51 0.49 0.39 0.48 0.54 0.47 0.45 0.37 0.31 0.23 0.16 0.11 0.12 0.13 0.16 0.19 0.20 0.16 0.10 0.09
0.04 0.02 0.02 0.07 0.30 0.56 0.80 0.55 0.28 0.21 0.30 0.18 0.26 0.43 0.64 0.31 0.34 0.09 0.04 0.07 0.19 0.22 0.30 0.31 0.41 0.46 0.44 0.43 0.44 0.42 0.35 0.33 0.25 0.20 0.16 0.15 0.16 0.19 0.20 0.18 0.18 0.19 0.17
0.00 0.00 0.00 0.02 0.13 0.32 0.47 0.75 0.74 0.48 0.65 0.48 0.18 0.11 0.12 0.10 0.09 0.04 0.04 0.13 0.19 0.13 0.23 0.34 0.39 0.40 0.40 0.42 0.38 0.32 0.28 0.19 0.16 0.16 0.17 0.16 0.16 0.20 0.20 0.23 0.21 0.18 0.18
0.00 0.00 0.00 0.00 0.00 0.03 0.11 0.39 0.74 0.50 0.56 0.26 0.16 0.13 0.09 0.12 0.20 0.11 0.21 0.31 0.32 0.27 0.25 0.45 0.36 0.24 0.25 0.25 0.21 0.20 0.20 0.16 0.10 0.08 0.09 0.12 0.16 0.18 0.18 0.21 0.22 0.22 0.23
0.00 0.00 0.00 0.00 0.00 0.00 0.00 0.03 0.12 0.19 0.26 0.19 0.14 0.20 0.12 0.06 0.09 0.12 0.15 0.32 0.43 0.38 0.34 0.36 0.47 0.33 0.12 0.12 0.13 0.10 0.10 0.12 0.12 0.12 0.11 0.09 0.10 0.12 0.14 0.17 0.19 0.20 0.25
0.00 0.00 0.00 0.00 0.00 0.00 0.00 0.00 0.00 0.02 0.09 0.14 0.13 0.15 0.14 0.03 0.03 0.08 0.13 0.12 0.23 0.22 0.16 0.16 0.11 0.12 0.13 0.12 0.08 0.05 0.05 0.05 0.07 0.11 0.15 0.18 0.23 0.24 0.23 0.23 0.21 0.22 0.29
0.00 0.00 0.00 0.00 0.00 0.00 0.00 0.00 0.00 0.00 0.00 0.00 0.01 0.06 0.11 0.06 0.04 0.05 0.08 0.08 0.11 0.13 0.12 0.08 0.06 0.04 0.03 0.10 0.09 0.06 0.03 0.04 0.05 0.07 0.09 0.12 0.24 0.26 0.34 0.38 0.39 0.39 0.38
0.00 0.00 0.00 0.00 0.00 0.00 0.00 0.00 0.00 0.00 0.00 0.00 0.00 0.00 0.00 0.00 0.00 0.01 0.02 0.02 0.02 0.02 0.01 0.00 0.00 0.00 0.00 0.02 0.04 0.05 0.01 0.01 0.02 0.04 0.05 0.06 0.14 0.29 0.27 0.32 0.32 0.32 0.35
0.00 0.00 0.00 0.00 0.00 0.00 0.00 0.00 0.00 0.00 0.00 0.00 0.00 0.00 0.00 0.00 0.00 0.00 0.00 0.00 0.00 0.00 0.00 0.00 0.00 0.00 0.00 0.00 0.00 0.00 0.00 0.00 0.00 0.00 0.01 0.01 0.04 0.07 0.12 0.15 0.16 0.19 0.21
0.00 0.00 0.00 0.00 0.00 0.00 0.00 0.00 0.00 0.00 0.00 0.00 0.00 0.00 0.00 0.00 0.00 0.00 0.00 0.00 0.00 0.00 0.00 0.00 0.00 0.00 0.00 0.00 0.00 0.00 0.00 0.00 0.00 0.00 0.00 0.00 0.01 0.03 0.05 0.06 0.09 0.15 0.18
0.00 0.00 0.00 0.00 0.00 0.00 0.00 0.00 0.00 0.00 0.00 0.00 0.00 0.00 0.00 0.00 0.00 0.00 0.00 0.00 0.00 0.00 0.00 0.00 0.00 0.00 0.00 0.00 0.00 0.00 0.00 0.00 0.00 0.00 0.00 0.00 0.00 0.00 0.01 0.01 0.01 0.04 0.07
0.00 0.00 0.00 0.00 0.00 0.00 0.00 0.00 0.00 0.00 0.00 0.00 0.00 0.00 0.00 0.00 0.00 0.00 0.00 0.00 0.00 0.00 0.00 0.00 0.00 0.00 0.00 0.00 0.00 0.00 0.00 0.00 0.00 0.00 0.00 0.00 0.00 0.00 0.01 0.01 0.00 0.01 0.03
0.00 0.00 0.00 0.00 0.00 0.00 0.00 0.00 0.00 0.00 0.00 0.00 0.00 0.00 0.00 0.00 0.00 0.00 0.00 0.00 0.00 0.00 0.00 0.00 0.00 0.00 0.00 0.00 0.00 0.00 0.00 0.00 0.00 0.00 0.00 0.00 0.00 0.00 0.01 0.01 0.00 0.01 0.02
0.00 0.00 0.00 0.00 0.00 0.00 0.00 0.00 0.00 0.00 0.00 0.00 0.00 0.00 0.00 0.00 0.00 0.00 0.00 0.00 0.00 0.00 0.00 0.00 0.00 0.00 0.00 0.00 0.00 0.00 0.00 0.00 0.00 0.00 0.00 0.00 0.00 0.00 0.00 0.01 0.01 0.02 0.01
0.00 0.00 0.00 0.00 0.00 0.00 0.00 0.00 0.00 0.00 0.00 0.00 0.00 0.00 0.00 0.00 0.00 0.00 0.00 0.00 0.00 0.00 0.00 0.00 0.00 0.00 0.00 0.00 0.00 0.00 0.00 0.00 0.00 0.00 0.00 0.00 0.00 0.00 0.00 0.01 0.01 0.01 0.01
0.00 0.00 0.00 0.00 0.00 0.00 0.00 0.00 0.00 0.00 0.00 0.00 0.00 0.00 0.00 0.00 0.00 0.00 0.00 0.00 0.00 0.00 0.00 0.00 0.00 0.00 0.00 0.00 0.01 0.00 0.00 0.00 0.00 0.00 0.00 0.00 0.00 0.00 0.00 0.00 0.01 0.02 0.05
0.00 0.00 0.00 0.00 0.00 0.00 0.00 0.00 0.00 0.00 0.00 0.00 0.00 0.00 0.00 0.00 0.00 0.00 0.00 0.00 0.00 0.00 0.00 0.00 0.00 0.00 0.00 0.00 0.01 0.00 0.00 0.00 0.01 0.00 0.00 0.00 0.00 0.00 0.00 0.01 0.02 0.06 0.11